SHT8U EGLL-EGPH

Flight info

Callsign SHT8U
Flight time 0h 54m
Altitude 32000
Route UMLAT1G UMLAT T418 WELIN T420 TNT UN57 POL UN601 RIBEL DCT INPIP INPIP1E
Aircraft A320/M-SDE3FGIKRWXY/S

Departure

Time 2026-04-25 12:46
Airport London Heathrow Airport (EGLL)

Arrival

Time 2026-04-25 13:41
Airport Edinburgh Airport (EGPH)
Time Latitude Longitude Altitude Speed Heading
2026-04-25 11:57 51.47233 -0.48585 86 ft 0 kts 270°
2026-04-25 12:27 51.47233 -0.48581 89 ft 2 kts 269°
2026-04-25 12:28 51.47233 -0.48552 88 ft 3 kts 263°
2026-04-25 12:28 51.47236 -0.48521 90 ft 3 kts 252°
2026-04-25 12:28 51.47244 -0.48491 89 ft 3 kts 229°
2026-04-25 12:28 51.47257 -0.48475 90 ft 2 kts 187°
2026-04-25 12:29 51.47261 -0.48474 90 ft 0 kts 180°
2026-04-25 12:34 51.47242 -0.48474 89 ft 5 kts 180°
2026-04-25 12:34 51.47198 -0.48474 86 ft 8 kts 180°
2026-04-25 12:34 51.47136 -0.48474 86 ft 10 kts 180°
2026-04-25 12:34 51.47083 -0.48472 88 ft 13 kts 179°
2026-04-25 12:35 51.46945 -0.48471 87 ft 17 kts 180°
2026-04-25 12:35 51.46836 -0.48469 86 ft 15 kts 179°
2026-04-25 12:35 51.46743 -0.48408 86 ft 16 kts 103°
2026-04-25 12:35 51.46743 -0.48223 86 ft 18 kts 91°
2026-04-25 12:36 51.46743 -0.48005 86 ft 21 kts 90°
2026-04-25 12:36 51.46745 -0.47841 86 ft 9 kts 87°
2026-04-25 12:36 51.46745 -0.47727 86 ft 12 kts 90°
2026-04-25 12:36 51.46744 -0.47584 86 ft 14 kts 90°
2026-04-25 12:37 51.46746 -0.47406 86 ft 18 kts 89°
2026-04-25 12:37 51.46747 -0.47196 89 ft 20 kts 90°
2026-04-25 12:37 51.46747 -0.47007 90 ft 18 kts 90°
2026-04-25 12:37 51.46747 -0.46790 86 ft 19 kts 89°
2026-04-25 12:38 51.46748 -0.46577 86 ft 21 kts 90°
2026-04-25 12:38 51.46747 -0.46330 88 ft 23 kts 90°
2026-04-25 12:38 51.46747 -0.46095 88 ft 22 kts 89°
2026-04-25 12:38 51.46749 -0.45841 86 ft 24 kts 90°
2026-04-25 12:39 51.46751 -0.45615 86 ft 21 kts 89°
2026-04-25 12:39 51.46750 -0.45406 86 ft 19 kts 90°
2026-04-25 12:39 51.46750 -0.45212 86 ft 14 kts 89°
2026-04-25 12:39 51.46751 -0.45035 86 ft 17 kts 90°
2026-04-25 12:40 51.46752 -0.44846 86 ft 17 kts 89°
2026-04-25 12:40 51.46752 -0.44650 86 ft 19 kts 90°
2026-04-25 12:40 51.46753 -0.44481 86 ft 15 kts 89°
2026-04-25 12:40 51.46754 -0.44366 86 ft 9 kts 89°
2026-04-25 12:41 51.46754 -0.44264 86 ft 7 kts 90°
2026-04-25 12:41 51.46754 -0.44211 86 ft 4 kts 90°
2026-04-25 12:41 51.46754 -0.44195 86 ft 4 kts 90°
2026-04-25 12:41 51.46752 -0.44103 86 ft 10 kts 102°
2026-04-25 12:42 51.46688 -0.44053 86 ft 12 kts 180°
2026-04-25 12:42 51.46643 -0.44053 86 ft 7 kts 180°
2026-04-25 12:42 51.46613 -0.44053 87 ft 0 kts 179°
2026-04-25 12:43 51.46517 -0.44064 86 ft 11 kts 203°
2026-04-25 12:44 51.46492 -0.44173 86 ft 0 kts 269°
2026-04-25 12:44 51.46492 -0.44178 86 ft 1 kts 269°
2026-04-25 12:44 51.46492 -0.44183 86 ft 0 kts 269°
2026-04-25 12:45 51.46489 -0.45098 88 ft 105 kts 270°
2026-04-25 12:46 51.46481 -0.46568 89 ft 155 kts 269°
2026-04-25 12:46 51.46478 -0.48421 481 ft 167 kts 270°
2026-04-25 12:46 51.46557 -0.50324 1091 ft 173 kts 279°
2026-04-25 12:46 51.46868 -0.52049 1590 ft 180 kts 294°
2026-04-25 12:47 51.47452 -0.53997 1880 ft 204 kts 297°
2026-04-25 12:47 51.48149 -0.56150 2230 ft 229 kts 298°
2026-04-25 12:47 51.48927 -0.58525 2704 ft 252 kts 298°
2026-04-25 12:47 51.49745 -0.61035 3498 ft 260 kts 297°
2026-04-25 12:48 51.50549 -0.63515 4414 ft 263 kts 298°
2026-04-25 12:48 51.51623 -0.65900 5358 ft 268 kts 316°
2026-04-25 12:48 51.53178 -0.67565 5809 ft 272 kts 338°
2026-04-25 12:48 51.55033 -0.68135 5972 ft 272 kts 355°
2026-04-25 12:49 51.57046 -0.68356 5984 ft 271 kts 355°
2026-04-25 12:49 51.58799 -0.68533 5992 ft 271 kts 356°
2026-04-25 12:49 51.60441 -0.68696 5986 ft 271 kts 356°
2026-04-25 12:49 51.62297 -0.68888 5978 ft 271 kts 355°
2026-04-25 12:50 51.63270 -0.68993 5978 ft 271 kts 355°
2026-04-25 12:50 51.65792 -0.69264 5980 ft 271 kts 355°
2026-04-25 12:50 51.67312 -0.69430 6045 ft 273 kts 355°
2026-04-25 12:50 51.69212 -0.69639 6930 ft 274 kts 355°
2026-04-25 12:51 51.71135 -0.69849 7829 ft 277 kts 355°
2026-04-25 12:51 51.73083 -0.70065 8733 ft 280 kts 355°
2026-04-25 12:51 51.75039 -0.70291 9593 ft 284 kts 355°
2026-04-25 12:51 51.77018 -0.70520 10390 ft 289 kts 355°
2026-04-25 12:52 51.78941 -0.70744 10651 ft 310 kts 355°
2026-04-25 12:52 51.81054 -0.70987 10869 ft 332 kts 355°
2026-04-25 12:52 51.83398 -0.71249 11380 ft 342 kts 355°
2026-04-25 12:52 51.85789 -0.71511 12060 ft 346 kts 355°
2026-04-25 12:53 51.88210 -0.71779 12749 ft 351 kts 355°
2026-04-25 12:53 51.90655 -0.72050 13452 ft 355 kts 355°
2026-04-25 12:53 51.93129 -0.72330 14134 ft 358 kts 354°
2026-04-25 12:53 51.95289 -0.72580 14665 ft 362 kts 354°
2026-04-25 12:54 51.97754 -0.72867 15260 ft 365 kts 354°
2026-04-25 12:54 52.00079 -0.73134 15817 ft 368 kts 354°
2026-04-25 12:54 52.02619 -0.73729 16411 ft 370 kts 345°
2026-04-25 12:54 52.04260 -0.74513 16819 ft 371 kts 340°
2026-04-25 12:55 52.07164 -0.76023 17550 ft 375 kts 341°
2026-04-25 12:55 52.07969 -0.76443 17753 ft 376 kts 341°
2026-04-25 12:55 52.12154 -0.78636 18771 ft 382 kts 341°
2026-04-25 12:55 52.14685 -0.79968 19323 ft 385 kts 340°
2026-04-25 12:56 52.17239 -0.81310 19885 ft 389 kts 340°
2026-04-25 12:56 52.19831 -0.82668 20451 ft 393 kts 340°
2026-04-25 12:56 52.22402 -0.84012 20989 ft 396 kts 340°
2026-04-25 12:56 52.24917 -0.85569 21501 ft 398 kts 332°
2026-04-25 12:57 52.27337 -0.87811 22012 ft 401 kts 326°
2026-04-25 12:57 52.29722 -0.90192 22523 ft 404 kts 327°
2026-04-25 12:57 52.31265 -0.91731 22836 ft 407 kts 327°
2026-04-25 12:57 52.33624 -0.94080 23308 ft 410 kts 327°
2026-04-25 12:58 52.36076 -0.96520 23778 ft 413 kts 327°
2026-04-25 12:58 52.38250 -0.98685 24138 ft 416 kts 327°
2026-04-25 12:58 52.40727 -1.01160 24550 ft 419 kts 326°
2026-04-25 12:58 52.43225 -1.03661 24957 ft 421 kts 326°
2026-04-25 12:59 52.45732 -1.06174 25359 ft 423 kts 326°
2026-04-25 12:59 52.47896 -1.08342 25711 ft 425 kts 326°
2026-04-25 12:59 52.50391 -1.10841 26090 ft 427 kts 326°
2026-04-25 12:59 52.52883 -1.13346 26471 ft 429 kts 326°
2026-04-25 13:00 52.55436 -1.15919 26848 ft 431 kts 326°
2026-04-25 13:00 52.57165 -1.17664 27111 ft 433 kts 326°
2026-04-25 13:00 52.60574 -1.21112 27620 ft 435 kts 326°
2026-04-25 13:00 52.62953 -1.23524 27972 ft 437 kts 326°
2026-04-25 13:01 52.65247 -1.25850 28306 ft 439 kts 326°
2026-04-25 13:01 52.67851 -1.28491 28683 ft 441 kts 326°
2026-04-25 13:01 52.70475 -1.31151 29042 ft 443 kts 326°
2026-04-25 13:01 52.73099 -1.33816 29401 ft 445 kts 326°
2026-04-25 13:02 52.75742 -1.36506 29782 ft 447 kts 326°
2026-04-25 13:02 52.78392 -1.39206 30209 ft 448 kts 326°
2026-04-25 13:02 52.81043 -1.41908 30631 ft 447 kts 326°
2026-04-25 13:02 52.83477 -1.44394 31027 ft 445 kts 326°
2026-04-25 13:03 52.85826 -1.46789 31424 ft 444 kts 326°
2026-04-25 13:03 52.88449 -1.49476 31886 ft 442 kts 326°
2026-04-25 13:03 52.90723 -1.51815 32164 ft 442 kts 326°
2026-04-25 13:03 52.93246 -1.54416 32220 ft 441 kts 326°
2026-04-25 13:04 52.98446 -1.59792 32215 ft 440 kts 326°
2026-04-25 13:04 53.03332 -1.64841 32215 ft 440 kts 326°
2026-04-25 13:05 53.08687 -1.69029 32212 ft 443 kts 338°
2026-04-25 13:05 53.14506 -1.72604 32207 ft 443 kts 338°
2026-04-25 13:06 53.19894 -1.75961 32209 ft 443 kts 337°
2026-04-25 13:06 53.25665 -1.79582 32213 ft 444 kts 337°
2026-04-25 13:07 53.31447 -1.83198 32208 ft 444 kts 338°
2026-04-25 13:07 53.36789 -1.86529 32202 ft 444 kts 338°
2026-04-25 13:08 53.42410 -1.90063 32206 ft 444 kts 337°
2026-04-25 13:08 53.47840 -1.93490 32200 ft 444 kts 338°
2026-04-25 13:09 53.53180 -1.96841 32204 ft 444 kts 338°
2026-04-25 13:09 53.58970 -2.00501 32206 ft 444 kts 337°
2026-04-25 13:10 53.64759 -2.04183 32206 ft 445 kts 337°
2026-04-25 13:10 53.70412 -2.07796 32208 ft 445 kts 337°
2026-04-25 13:11 53.76028 -2.11400 32214 ft 445 kts 337°
2026-04-25 13:11 53.81729 -2.15234 32206 ft 445 kts 336°
2026-04-25 13:12 53.87436 -2.19194 32201 ft 445 kts 336°
2026-04-25 13:12 53.92043 -2.22391 32201 ft 445 kts 336°
2026-04-25 13:13 53.98487 -2.26823 32205 ft 445 kts 336°
2026-04-25 13:13 54.04216 -2.30751 32198 ft 446 kts 336°
2026-04-25 13:14 54.09891 -2.34665 32199 ft 446 kts 336°
2026-04-25 13:14 54.15651 -2.38651 32201 ft 447 kts 336°
2026-04-25 13:15 54.21408 -2.42658 32198 ft 447 kts 336°
2026-04-25 13:15 54.26920 -2.46512 32196 ft 447 kts 336°
2026-04-25 13:16 54.32685 -2.50548 32191 ft 448 kts 336°
2026-04-25 13:16 54.38421 -2.54575 32194 ft 448 kts 336°
2026-04-25 13:17 54.44053 -2.58532 32195 ft 449 kts 336°
2026-04-25 13:17 54.49827 -2.62598 32200 ft 449 kts 337°
2026-04-25 13:18 54.52709 -2.64632 32015 ft 450 kts 336°
2026-04-25 13:18 54.55598 -2.66679 31757 ft 450 kts 336°
2026-04-25 13:18 54.58291 -2.68596 31528 ft 451 kts 337°
2026-04-25 13:18 54.61259 -2.70705 31279 ft 453 kts 336°
2026-04-25 13:19 54.64065 -2.72700 31037 ft 455 kts 337°
2026-04-25 13:19 54.66945 -2.74753 30668 ft 453 kts 337°
2026-04-25 13:19 54.69849 -2.76825 29984 ft 451 kts 337°
2026-04-25 13:19 54.70793 -2.77498 29777 ft 450 kts 337°
2026-04-25 13:20 54.75569 -2.80912 28780 ft 442 kts 337°
2026-04-25 13:20 54.77838 -2.82539 28297 ft 439 kts 337°
2026-04-25 13:20 54.80559 -2.84499 27697 ft 436 kts 337°
2026-04-25 13:20 54.83335 -2.86500 27129 ft 432 kts 337°
2026-04-25 13:21 54.85170 -2.87821 26731 ft 430 kts 337°
2026-04-25 13:21 54.88401 -2.90147 26047 ft 427 kts 337°
2026-04-25 13:21 54.91143 -2.92127 25433 ft 425 kts 336°
2026-04-25 13:21 54.93198 -2.93617 24995 ft 423 kts 336°
2026-04-25 13:22 54.95572 -2.95342 24483 ft 422 kts 336°
2026-04-25 13:22 54.98276 -2.97304 23897 ft 420 kts 337°
2026-04-25 13:22 55.00261 -2.98744 23404 ft 419 kts 337°
2026-04-25 13:23 55.05602 -3.02606 22238 ft 412 kts 337°
2026-04-25 13:23 55.08244 -3.04527 21661 ft 410 kts 337°
2026-04-25 13:23 55.09926 -3.05753 21298 ft 409 kts 336°
2026-04-25 13:23 55.12408 -3.07570 20673 ft 408 kts 336°
2026-04-25 13:24 55.14023 -3.08754 20372 ft 398 kts 336°
2026-04-25 13:24 55.16787 -3.10782 19638 ft 391 kts 336°
2026-04-25 13:24 55.19154 -3.12521 18710 ft 389 kts 336°
2026-04-25 13:24 55.21401 -3.14459 18021 ft 377 kts 328°
2026-04-25 13:25 55.23654 -3.16751 17517 ft 375 kts 328°
2026-04-25 13:25 55.25906 -3.19039 16974 ft 372 kts 328°
2026-04-25 13:25 55.28134 -3.21300 16448 ft 368 kts 328°
2026-04-25 13:25 55.29885 -3.23081 16026 ft 365 kts 328°
2026-04-25 13:26 55.31779 -3.25020 15567 ft 363 kts 328°
2026-04-25 13:26 55.33946 -3.27251 15042 ft 359 kts 328°
2026-04-25 13:26 55.35846 -3.29208 14673 ft 353 kts 328°
2026-04-25 13:26 55.37917 -3.31259 14160 ft 351 kts 329°
2026-04-25 13:27 55.39334 -3.32701 13951 ft 345 kts 328°
2026-04-25 13:27 55.41618 -3.35066 13787 ft 317 kts 328°
2026-04-25 13:27 55.43471 -3.37006 13407 ft 304 kts 328°
2026-04-25 13:27 55.45236 -3.38859 13042 ft 296 kts 328°
2026-04-25 13:28 55.46423 -3.40103 12789 ft 288 kts 328°
2026-04-25 13:28 55.46979 -3.40685 12676 ft 284 kts 328°
2026-04-25 13:28 55.49199 -3.42998 12193 ft 270 kts 328°
2026-04-25 13:28 55.50705 -3.44565 11861 ft 267 kts 328°
2026-04-25 13:29 55.52024 -3.45938 11569 ft 265 kts 328°
2026-04-25 13:29 55.53604 -3.47581 11229 ft 265 kts 328°
2026-04-25 13:29 55.55197 -3.49237 10885 ft 266 kts 328°
2026-04-25 13:30 55.58201 -3.52363 10248 ft 258 kts 328°
2026-04-25 13:30 55.59421 -3.53643 9987 ft 257 kts 328°
2026-04-25 13:30 55.60955 -3.55251 9636 ft 256 kts 328°
2026-04-25 13:31 55.63769 -3.58195 9029 ft 257 kts 327°
2026-04-25 13:31 55.64899 -3.59347 8779 ft 258 kts 328°
2026-04-25 13:31 55.66433 -3.60997 8448 ft 257 kts 321°
2026-04-25 13:31 55.67721 -3.63184 8119 ft 257 kts 311°
2026-04-25 13:32 55.68895 -3.65555 7786 ft 252 kts 309°
2026-04-25 13:32 55.69912 -3.67633 7500 ft 246 kts 309°
2026-04-25 13:32 55.71023 -3.69907 7174 ft 240 kts 309°
2026-04-25 13:32 55.72097 -3.72114 6860 ft 232 kts 309°
2026-04-25 13:33 55.73150 -3.74271 6544 ft 224 kts 309°
2026-04-25 13:33 55.73975 -3.75941 6263 ft 218 kts 309°
2026-04-25 13:33 55.74975 -3.77921 5932 ft 213 kts 314°
2026-04-25 13:33 55.75688 -3.78794 5725 ft 212 kts 336°
2026-04-25 13:34 55.77630 -3.78838 5298 ft 217 kts 18°
2026-04-25 13:34 55.78818 -3.77479 4966 ft 217 kts 39°
2026-04-25 13:34 55.79946 -3.75733 4626 ft 211 kts 39°
2026-04-25 13:34 55.80797 -3.74389 4379 ft 208 kts 39°
2026-04-25 13:35 55.81596 -3.73081 4084 ft 207 kts 40°
2026-04-25 13:35 55.82536 -3.71594 3953 ft 205 kts 41°
2026-04-25 13:35 55.83407 -3.70229 3960 ft 204 kts 40°
2026-04-25 13:35 55.84348 -3.68320 3972 ft 207 kts 54°
2026-04-25 13:36 55.85137 -3.66147 3734 ft 208 kts 58°
2026-04-25 13:36 55.85875 -3.63997 3468 ft 198 kts 59°
2026-04-25 13:36 55.86572 -3.61961 3195 ft 191 kts 59°
2026-04-25 13:36 55.87176 -3.60188 2944 ft 185 kts 59°
2026-04-25 13:37 55.87829 -3.58284 2718 ft 176 kts 59°
2026-04-25 13:37 55.88251 -3.57054 2573 ft 165 kts 59°
2026-04-25 13:37 55.88856 -3.55290 2366 ft 145 kts 61°
2026-04-25 13:37 55.89363 -3.53805 2162 ft 137 kts 61°
2026-04-25 13:38 55.89845 -3.52394 1968 ft 131 kts 62°
2026-04-25 13:38 55.90273 -3.51140 1814 ft 130 kts 62°
2026-04-25 13:38 55.90722 -3.49832 1637 ft 132 kts 61°
2026-04-25 13:38 55.91195 -3.48455 1467 ft 130 kts 61°
2026-04-25 13:39 55.91674 -3.47064 1312 ft 131 kts 62°
2026-04-25 13:39 55.92139 -3.45729 1062 ft 130 kts 59°
2026-04-25 13:39 55.92608 -3.44346 880 ft 129 kts 63°
2026-04-25 13:39 55.93051 -3.42930 695 ft 128 kts 60°
2026-04-25 13:40 55.93523 -3.41581 557 ft 129 kts 58°
2026-04-25 13:40 55.93988 -3.40222 380 ft 126 kts 59°
2026-04-25 13:40 55.94447 -3.38887 193 ft 126 kts 59°
2026-04-25 13:40 55.94840 -3.37719 114 ft 113 kts 59°
2026-04-25 13:41 55.95185 -3.36699 114 ft 77 kts 59°
2026-04-25 13:41 55.95400 -3.36064 111 ft 40 kts 58°
2026-04-25 13:41 55.95515 -3.35729 113 ft 25 kts 59°
2026-04-25 13:41 55.95551 -3.35510 112 ft 16 kts 123°
2026-04-25 13:42 55.95491 -3.35433 114 ft 9 kts 149°
2026-04-25 13:42 55.95433 -3.35417 116 ft 11 kts 205°
2026-04-25 13:42 55.95388 -3.35533 115 ft 13 kts 238°
2026-04-25 13:42 55.95334 -3.35689 114 ft 16 kts 238°
2026-04-25 13:43 55.95271 -3.35876 114 ft 19 kts 239°
2026-04-25 13:43 55.95200 -3.36089 115 ft 21 kts 239°
2026-04-25 13:43 55.95126 -3.36306 116 ft 18 kts 239°
2026-04-25 13:43 55.95045 -3.36387 116 ft 13 kts 171°
2026-04-25 13:44 55.94986 -3.36480 112 ft 14 kts 238°
2026-04-25 13:44 55.94930 -3.36644 115 ft 17 kts 238°
2026-04-25 13:44 55.94867 -3.36774 115 ft 13 kts 196°
2026-04-25 13:44 55.94791 -3.36775 116 ft 11 kts 176°
2026-04-25 13:45 55.94721 -3.36737 115 ft 10 kts 177°
2026-04-25 13:45 55.94697 -3.36679 114 ft 4 kts 78°
2026-04-25 13:45 55.94702 -3.36622 116 ft 3 kts 89°
2026-04-25 13:45 55.94702 -3.36606 116 ft 0 kts 89°